SL-16 DEB

基本信息
目录编号:
22296
目录名称:
SL-16 DEB
国际标识:
1992-093L
轨道中心:
EARTH
物体状态:
在轨
发射日期:
1992-12-25 UTC
轨道信息
数据来源: 国际轨道数据
星历时间: 2026-09-05T04:54:00+0800
半长轴: 6932.639km
偏心率: 0.0022683
轨道倾角: 70.821°
近地点辐角: 189.566°
升交点赤经: 32.550°
平近点角: 327.845°
近地点: 538.776km
远地点: 570.228km
周期: 95.743分钟
每日圈数: 15.040246
详细信息
发射场:
TTMTR
轨道高度:
LEO
数据来源:
AOE Integration Group
参考系:
TEME
时间系统:
UTC
历元类型:
SGP4
2D轨道图
3D轨道图
轨道高度分析图
轨道倾角分析图
轨道综合分析图
查看轨道综合分析图